Location: Ellerstadt
(49.4644°N, 8.2615°E)
Time: 18:23:23
(UTC+00:00)

SR - All Passes

Search period start: 18 June 2021 00:00
Search period end: 28 June 2021 00:00
Orbit: 575 x 880 km, 66.7° (Epoch: 18 June)

Date Brightness Start Highest point End Pass type
(mag) Time Alt. Az. Time Alt. Az. Time Alt. Az.
18 Jun - 00:15:55 10° NNW 00:21:17 55° NE 00:26:09 10° SE visible
18 Jun - 01:58:34 10° NW 02:03:02 28° WSW 02:07:10 10° S visible
18 Jun - 14:51:24 10° SE 14:54:56 16° ESE 14:58:26 10° ENE daylight
18 Jun - 16:30:18 10° SSW 16:36:14 79° ESE 16:42:04 10° NE daylight
18 Jun - 18:13:47 10° W 18:18:56 30° NW 18:23:56 10° NNE daylight
18 Jun - 19:59:47 10° NW 20:02:54 15° NNW 20:05:56 10° NNE daylight
18 Jun - 21:44:10 10° NNW 21:47:23 15° NNE 21:50:27 10° NE visible
18 Jun - 23:26:10 10° NNW 23:31:10 34° NE 23:35:47 10° ESE visible
19 Jun - 01:08:20 10° NW 01:13:31 52° WSW 01:18:14 10° SSE visible
19 Jun - 15:40:53 10° S 15:46:31 47° ESE 15:52:05 10° NE daylight
19 Jun - 17:23:07 10° WSW 17:28:45 43° NW 17:34:14 10° NNE daylight
19 Jun - 19:08:31 10° WNW 19:12:19 17° NNW 19:16:01 10° NNE daylight
19 Jun - 20:54:01 10° NNW 20:56:45 13° N 20:59:23 10° NE visible
19 Jun - 22:36:26 10° NNW 22:40:53 24° NNE 22:45:03 10° E visible
20 Jun - 00:18:22 10° NW 00:23:48 87° NE 00:28:42 10° SE visible
20 Jun - 02:01:57 10° WNW 02:05:01 16° WSW 02:07:56 10° SW visible
20 Jun - 14:52:06 10° SSE 14:56:59 27° ESE 15:01:49 10° NE daylight
20 Jun - 16:32:48 10° SW 16:38:43 68° NW 16:44:30 10° NNE daylight
20 Jun - 18:17:19 10° W 18:21:51 22° NNW 18:26:15 10° NNE daylight
20 Jun - 20:03:23 10° NNW 20:06:04 13° N 20:08:42 10° NNE daylight
20 Jun - 21:46:42 10° NNW 21:50:27 18° NNE 21:54:02 10° ENE visible
20 Jun - 23:28:33 10° NNW 23:33:52 52° NE 23:38:41 10° ESE visible
21 Jun - 01:11:09 10° NW 01:15:40 30° WSW 01:19:51 10° S visible
21 Jun - 14:04:19 10° SE 14:07:36 15° ESE 14:10:52 10° ENE daylight
21 Jun - 15:42:56 10° SSW 15:48:51 76° ESE 15:54:40 10° NE daylight
21 Jun - 17:26:20 10° W 17:31:31 31° NW 17:36:33 10° NNE daylight
21 Jun - 19:12:17 10° NW 19:15:26 15° NNW 19:18:30 10° NNE daylight
21 Jun - 20:56:49 10° NNW 20:59:54 15° NNE 21:02:52 10° NE visible
21 Jun - 22:38:49 10° NNW 22:43:44 33° NE 22:48:16 10° ESE visible
22 Jun - 00:20:57 10° NW 00:26:08 55° WSW 00:30:51 10° SSE visible
22 Jun - 14:53:35 10° S 14:59:10 45° ESE 15:04:40 10° NE daylight
22 Jun - 16:35:41 10° WSW 16:41:20 45° NW 16:46:51 10° NNE daylight
22 Jun - 18:21:01 10° WNW 18:24:52 18° NNW 18:28:36 10° NNE daylight
22 Jun - 20:06:37 10° NNW 20:09:16 13° N 20:11:50 10° NNE daylight
22 Jun - 21:49:06 10° NNW 21:53:26 23° NNE 21:57:30 10° E visible
22 Jun - 23:31:00 10° NW 23:36:24 83° NE 23:41:16 10° SE visible
23 Jun - 01:14:26 10° WNW 01:17:40 17° WSW 01:20:44 10° SW visible
23 Jun - 14:04:52 10° SSE 14:09:38 26° ESE 14:14:22 10° NE daylight
23 Jun - 15:45:25 10° SW 15:51:21 71° NW 15:57:07 10° NNE daylight
23 Jun - 17:29:49 10° W 17:34:24 23° NNW 17:38:51 10° NNE daylight
23 Jun - 19:15:56 10° NNW 19:18:36 13° N 19:21:13 10° NNE daylight
23 Jun - 20:59:20 10° NNW 21:03:00 18° NNE 21:06:28 10° ENE visible
23 Jun - 22:41:12 10° NNW 22:46:27 49° NE 22:51:13 10° ESE visible
24 Jun - 00:23:43 10° NW 00:28:19 31° WSW 00:32:32 10° S visible
24 Jun - 13:17:15 10° SE 13:20:16 14° ESE 13:23:17 10° ENE daylight
24 Jun - 14:55:36 10° SSW 15:01:29 72° ESE 15:07:15 10° NE daylight
24 Jun - 16:38:52 10° W 16:44:05 32° NW 16:49:10 10° NNE daylight
24 Jun - 18:24:48 10° NW 18:27:58 15° NNW 18:31:03 10° NNE daylight
24 Jun - 20:09:27 10° NNW 20:12:26 14° NNE 20:15:19 10° NE daylight
24 Jun - 21:51:27 10° NNW 21:56:18 31° NE 22:00:45 10° E visible
24 Jun - 23:33:33 10° NW 23:38:45 59° WSW 23:43:28 10° SSE visible
25 Jun - 14:06:17 10° S 14:11:49 42° ESE 14:17:14 10° NE daylight
25 Jun - 15:48:14 10° WSW 15:53:56 47° NW 15:59:28 10° NNE daylight
25 Jun - 17:33:30 10° WNW 17:37:24 18° NNW 17:41:11 10° NNE daylight
25 Jun - 19:19:13 10° NNW 19:21:48 13° N 19:24:17 10° NNE daylight
25 Jun - 21:01:45 10° NNW 21:05:59 22° NNE 21:09:58 10° E visible
25 Jun - 22:43:38 10° NW 22:49:00 78° NE 22:53:50 10° SE visible
26 Jun - 00:26:57 10° WNW 00:30:19 18° WSW 00:33:31 10° SSW visible
26 Jun - 13:17:39 10° SSE 13:22:17 24° ESE 13:26:53 10° ENE daylight
26 Jun - 14:58:01 10° SW 15:03:57 75° NW 15:09:43 10° NE daylight
26 Jun - 16:42:19 10° W 16:46:57 24° NNW 16:51:27 10° NNE daylight
26 Jun - 18:28:28 10° NW 18:31:07 13° N 18:33:43 10° NNE daylight
26 Jun - 20:12:00 10° NNW 20:15:32 17° NNE 20:18:53 10° ENE visible
26 Jun - 21:53:50 10° NNW 21:59:01 46° NE 22:03:44 10° ESE visible
26 Jun - 23:36:18 10° NW 23:40:56 33° WSW 23:45:12 10° S visible
27 Jun - 12:30:14 10° SE 12:32:57 13° ESE 12:35:39 10° ENE daylight
27 Jun - 14:08:14 10° SSW 14:14:07 68° ESE 14:19:51 10° NE daylight
27 Jun - 15:51:24 10° WSW 15:56:40 33° NW 16:01:46 10° NNE daylight
27 Jun - 17:37:17 10° NW 17:40:30 15° NNW 17:43:37 10° NNE daylight
27 Jun - 19:22:05 10° NNW 19:24:57 14° N 19:27:44 10° NE daylight
27 Jun - 21:04:06 10° NNW 21:08:51 30° NE 21:13:14 10° E visible
27 Jun - 22:46:10 10° NW 22:51:22 62° WSW 22:56:05 10° SSE visible
